This demonstration page uses our WeatherBlox Daily Observations layout. Learn more.

Left ArrowRight Arrow

39.51506, -84.39828

Hourly Observations for October 31, 2020

Temp ( °F °C ) Dew Point ( °F °C ) Humidity (%) Winds ( mph kmh ) Pressure ( in mb ) Visibility ( mi km ) Precip ( " mm )
12:15 am 00:15 Clear 35 1.5 34 1.1 97 97 Calm 30.4 1030 10 16.0934 0 0
12:35 am 00:35 Clear 34 1.2 34 1 99 99 Calm 30.4 1030 10 16.0934 0 0
12:55 am 00:55 Clear 32 0.2 32 0.1 99 99 Calm 30.42 1030 10 16.0934 0 0
1:15 am 01:15 Clear 33 0.5 33 0.5 100 100 Calm 30.41 1030 10 16.0934 0 0
1:35 am 01:35 Clear 33 0.3 33 0.3 100 100 Calm 30.41 1030 10 16.0934 0 0
1:55 am 01:55 Clear 32 0 32 0 100 100 Calm 30.42 1030 10 16.0934 0 0
2:15 am 02:15 Clear 32 0 N/A N/A Calm 30.42 1030 10 16.0934 0 0
2:35 am 02:35 Clear 30 -1 N/A N/A Calm 30.42 1030 7 11.26538 0 0
2:55 am 02:55 Clear 30 -1 N/A N/A Calm 30.42 1030 10 16.0934 0 0
3:15 am 03:15 Clear 32 0 N/A N/A Calm 30.42 1030 10 16.0934 0 0
3:35 am 03:35 Clear 32 0 30 -1 93 93 Calm 30.42 1030 10 16.0934 0 0
3:55 am 03:55 Clear 32 -0.2 31 -0.3 99 99 Calm 30.42 1030 10 16.0934 0 0
4:15 am 04:15 Clear 32 -0.2 31 -0.3 99 99 Calm 30.42 1030 10 16.0934 0 0
4:35 am 04:35 Clear 31 -0.8 30 -1 99 99 Calm 30.43 1030 10 16.0934 0 0
4:55 am 04:55 Clear 31 -0.7 30 -0.9 99 99 Calm 30.43 1030 10 16.0934 0 0
5:15 am 05:15 Clear 31 -0.8 30 -0.9 99 99 Calm 30.44 1031 10 16.0934 0 0
5:35 am 05:35 Clear 31 -0.8 30 -0.9 99 99 Calm 30.44 1031 10 16.0934 0 0
5:55 am 05:55 Clear 31 -0.6 31 -0.8 99 99 Calm 30.45 1031 10 16.0934 0 0
6:15 am 06:15 Clear 29 -1.4 29 -1.6 99 99 Calm 30.45 1031 10 16.0934 0 0
6:35 am 06:35 Clear 30 -1.2 30 -1.3 99 99 Calm 30.45 1031 10 16.0934 0 0
6:55 am 06:55 Clear 30 -1.2 30 -1.3 99 99 Calm 30.46 1031 10 16.0934 0 0
7:15 am 07:15 Clear 29 -1.4 29 -1.5 99 99 Calm 30.46 1031 10 16.0934 0 0
7:35 am 07:35 Clear 29 -1.4 29 -1.5 99 99 Calm 30.46 1031 10 16.0934 0 0
7:55 am 07:55 Mostly Cloudy with Mist and Fog 28 -2 28 -2 100 100 Calm 30.46 1032 0.75 1.207005 0 0
8:15 am 08:15 Hazy 28 -2 N/A N/A Calm 30.45 1031 5 8.0467 0 0
8:35 am 08:35 Sunny 30 -1.3 30 -1.3 100 100 Calm 30.46 1031 7 11.26538 0 0
8:55 am 08:55 Sunny 31 -0.6 31 -0.7 99 99 Calm 30.46 1031 7 11.26538 0 0
9:15 am 09:15 Sunny 33 0.7 32 0 95 95 Calm 30.45 1031 10 16.0934 0 0
9:35 am 09:35 Sunny 36 2.1 32 -0.2 85 85 Calm 30.45 1031 10 16.0934 0 0
9:55 am 09:55 Sunny 38 3.3 33 0.4 82 82 Calm 30.45 1031 10 16.0934 0 0
10:15 am 10:15 Sunny 41 5.2 32 0.2 70 70 SSW 8 13 30.44 1031 10 16.0934 0 0
10:35 am 10:35 Sunny 42 5.8 32 -0.2 66 66 S 8 13 30.44 1031 10 16.0934 0 0
10:55 am 10:55 Sunny 44 6.7 33 0.4 64 64 SSW 6 9 30.43 1030 10 16.0934 0 0
11:15 am 11:15 Sunny 45 7.1 33 0.5 63 63 S 7 11 30.42 1030 10 16.0934 0 0
11:35 am 11:35 Sunny 47 8.3 34 1.1 61 61 S 7 11 30.41 1030 10 16.0934 0 0
11:55 am 11:55 Sunny 49 9.2 34 1.3 58 58 SW 8 13 30.4 1029 10 16.0934 0 0
12:15 pm 12:15 Sunny 50 9.8 35 1.8 58 58 SSW 9 15 30.4 1029 10 16.0934 0 0
12:35 pm 12:35 Sunny 51 10.5 35 1.5 54 54 SW 10 17 30.39 1029 10 16.0934 0 0
12:55 pm 12:55 Sunny 52 11 35 1.8 53 53 SSW 12 19 30.38 1029 10 16.0934 0 0
1:15 pm 13:15 Sunny 52 11.1 35 1.8 53 53 WSW 9 15 30.36 1028 10 16.0934 0 0
1:35 pm 13:35 Sunny 53 11.6 36 2.1 52 52 SSW 9 15 30.35 1028 10 16.0934 0 0
1:55 pm 13:55 Sunny 53 11.7 35 1.7 51 51 SSW 7 11 30.32 1027 10 16.0934 0 0
2:15 pm 14:15 Sunny 53 11.9 35 1.8 50 50 SW 6 9 30.31 1027 10 16.0934 0 0
2:35 pm 14:35 Sunny 54 12.2 35 1.8 49 49 WSW 9 15 30.3 1026 10 16.0934 0 0
2:55 pm 14:55 Sunny 55 12.5 36 2 49 49 SSW 6 9 30.29 1026 10 16.0934 0 0
3:15 pm 15:15 Sunny 55 12.6 35 1.7 48 48 WSW 9 15 30.28 1025 10 16.0934 0 0
3:35 pm 15:35 Sunny 56 13.1 36 2.1 47 47 SW 10 17 30.27 1025 10 16.0934 0 0
3:55 pm 15:55 Sunny 55 12.5 36 2 49 49 SSW 10 17 30.26 1025 10 16.0934 0 0
4:15 pm 16:15 Sunny 56 13.4 36 2.2 47 47 SSW 12 19 30.24 1024 10 16.0934 0 0
4:35 pm 16:35 Sunny 56 13.3 37 2.5 48 48 S 8 13 30.23 1024 10 16.0934 0 0
4:55 pm 16:55 Sunny 56 13.4 37 2.5 48 48 SW 13 20 30.23 1024 10 16.0934 0 0
5:15 pm 17:15 Sunny 56 13.4 37 2.9 49 49 SSW 8 13 30.22 1023 10 16.0934 0 0
5:35 pm 17:35 Sunny 56 13.2 37 3 50 50 SSW 9 15 30.21 1023 10 16.0934 0 0
5:55 pm 17:55 Sunny 55 12.9 37 3 51 51 SW 10 17 30.2 1023 10 16.0934 0 0
6:15 pm 18:15 Sunny 55 12.6 38 3.2 53 53 SW 9 15 30.2 1023 10 16.0934 0 0
6:35 pm 18:35 Sunny 54 12.2 38 3.3 55 55 SSW 9 15 30.19 1022 10 16.0934 0 0
6:55 pm 18:55 Clear 53 11.6 38 3.4 57 57 SW 7 11 30.2 1023 10 16.0934 0 0
7:15 pm 19:15 Clear 52 11.2 38 3.5 59 59 SW 7 11 30.2 1023 10 16.0934 0 0
7:35 pm 19:35 Clear 51 10.7 38 3.6 62 62 SW 7 11 30.19 1022 10 16.0934 0 0
7:55 pm 19:55 Clear 51 10.3 38 3.5 63 63 SW 6 9 30.19 1022 10 16.0934 0 0
8:15 pm 20:15 Clear 51 10.7 39 3.7 62 62 SW 8 13 30.18 1022 10 16.0934 0 0
8:35 pm 20:35 Clear 51 10.6 39 3.7 63 63 SW 6 9 30.18 1022 10 16.0934 0 0
8:55 pm 20:55 Clear 50 10.2 39 3.8 65 65 SW 5 7 30.17 1022 10 16.0934 0 0
9:15 pm 21:15 Clear 49 9.5 39 3.8 68 68 SW 3 6 30.17 1022 10 16.0934 0 0
9:35 pm 21:35 Clear 47 8.6 39 3.9 73 73 WSW 5 7 30.16 1021 10 16.0934 0 0
9:55 pm 21:55 Clear 47 8.1 39 4 76 76 W 3 6 30.16 1021 10 16.0934 0 0
10:15 pm 22:15 Clear 46 7.9 40 4.4 79 79 Calm 30.15 1021 10 16.0934 0 0
10:35 pm 22:35 Clear 46 7.7 40 4.4 80 80 W 5 7 30.14 1021 10 16.0934 0 0
10:55 pm 22:55 Clear 45 7.2 40 4.6 84 84 W 3 6 30.14 1021 10 16.0934 0 0
11:15 pm 23:15 Clear 47 8.1 40 4.3 77 77 W 6 9 30.13 1020 10 16.0934 0 0
11:35 pm 23:35 Clear 46 7.6 40 4.5 81 81 WSW 7 11 30.13 1020 10 16.0934 0 0
11:55 pm 23:55 Clear 45 7.4 40 4.6 83 83 W 7 11 30.12 1020 10 16.0934 0 0

Powered by AerisWeather